Location: Deneb Observatory
(47.2267°N, 100.4953°W)
Time: 18:19:09
(UTC-06:00)

Amateur Radio Satellites - All Passes

Search period start: 05 February 2016 17:49
Search period end: 06 February 2016 17:49
Location: Deneb Observatory, 47.2267°N, 100.4953°W

Satellite Date Start Highest point End Downlink Frequencies (MHz)
Time Altitude Azimuth
BRITE-PL 05 Feb 17:52:59 17:58:18 42° 68° (ENE) 18:03:33 437.365/2234.400
CUBESAT XI-V 05 Feb 17:53:06 17:57:23 33° 96° (E) 18:01:37 437.345
Cosmos 2491 05 Feb 17:53:27 18:01:19 36° 293° (WNW) 18:09:13 435.465 / 435.565
LilacSat-2 05 Feb 17:53:59 17:57:44 57° 74° (ENE) 18:01:30 437.200
DOVE 4 05 Feb 17:54:52 17:57:22 14° 58° (ENE) 17:59:50 437.250
STARS 05 Feb 18:05:04 18:08:08 19° 299° (WNW) 18:11:11 437.465
KKS-1 05 Feb 18:10:34 18:11:51 11° 304° (NW) 18:13:08 437.445
BEESAT 3 05 Feb 18:15:28 18:18:12 18° 113° (ESE) 18:20:56 437.485
BEESAT 2 05 Feb 18:31:00 18:33:40 17° 112° (ESE) 18:36:20 435.950
Cosmos 2504 05 Feb 18:34:04 18:41:45 36° 277° (W) 18:49:04 435.465 / 435.565
CANX-2 05 Feb 18:36:11 18:37:59 13° 59° (ENE) 18:39:49 2200.000
CUTE-I 05 Feb 18:41:24 18:46:29 46° 261° (W) 18:51:38 437.470
ISS 05 Feb 18:46:32 18:49:42 54° 148° (SSE) 18:52:53 145.825
Cubesat XI-IV 05 Feb 18:53:52 18:58:45 36° 263° (W) 19:03:41 437.490
O/OREOS (USA 219) 05 Feb 18:59:22 19:03:58 79° 64° (ENE) 19:08:34 437.305
HO-68 05 Feb 19:02:12 19:08:48 42° 61° (ENE) 19:15:27 435.675
GONETS M04 05 Feb 19:16:49 19:23:32 23° 58° (ENE) 19:30:12
AO-85 05 Feb 19:22:17 19:27:01 31° 37° (NE) 19:31:26 145.980
CINEMA 3 05 Feb 19:22:58 19:26:58 29° 67° (ENE) 19:30:50 145.822/145.860
GOMX 1 05 Feb 19:23:42 19:29:08 65° 259° (W) 19:34:24 467.674
CUTE 1.7 + AOD 2 05 Feb 19:25:23 19:29:08 32° 68° (ENE) 19:32:54 437.475
DOVE 4 05 Feb 19:29:13 19:34:25 84° 74° (ENE) 19:39:22 437.250
CUBESAT XI-V 05 Feb 19:30:33 19:34:44 32° 294° (WNW) 19:38:53 437.345
LilacSat-2 05 Feb 19:30:40 19:32:26 13° 271° (W) 19:34:12 437.200
BRITE-PL 05 Feb 19:31:39 19:36:48 34° 266° (W) 19:41:55 437.365/2234.400
PCSat 05 Feb 19:34:43 19:38:52 22° 35° (NE) 19:43:01 145.827
COMPASS 1 05 Feb 19:35:15 19:38:36 24° 65° (ENE) 19:41:58 437.405
SEEDS 05 Feb 19:40:12 19:44:00 35° 69° (ENE) 19:47:50 437.485
AIST 2 05 Feb 19:49:33 19:51:30 13° 110° (ESE) 19:53:25 435.215
STRAND 1 05 Feb 19:51:34 19:56:42 62° 102° (ESE) 20:01:48 437.568
BEESAT 3 05 Feb 19:51:40 19:55:36 55° 311° (NW) 19:59:33 437.485
FUNcube-1 05 Feb 19:56:13 19:57:50 12° 59° (ENE) 19:59:28 145.935
RS-15 05 Feb 19:59:04 20:10:40 50° 34° (NE) 20:22:32 29.354- 29.394
PRISM 05 Feb 20:00:07 20:03:35 24° 95° (E) 20:07:01 437.425
CUBEBUG 2 05 Feb 20:02:36 20:06:14 26° 66° (ENE) 20:09:47 437.445
Cosmos 2499 05 Feb 20:03:13 20:09:11 20° 54° (NE) 20:14:53 435.465 / 435.565
BEESAT 2 05 Feb 20:07:12 20:11:11 58° 311° (NW) 20:15:11 435.950
AAUSAT CUBESAT 2 05 Feb 20:07:55 20:11:48 42° 70° (ENE) 20:15:44 437.432
CANX-2 05 Feb 20:09:03 20:13:15 80° 257° (WSW) 20:17:31 2200.000
UWE-3 05 Feb 20:13:39 20:17:09 25° 66° (ENE) 20:20:37 435.000/436.395/437.385
ISS 05 Feb 20:23:07 20:26:14 43° 347° (NNW) 20:29:23 145.825
DELFI C3 05 Feb 20:25:48 20:28:20 17° 62° (ENE) 20:30:53 145.870
Oscar 11 05 Feb 20:33:45 20:37:41 36° 69° (ENE) 20:41:38 145.826/435.025
O/OREOS (USA 219) 05 Feb 20:40:40 20:42:43 13° 262° (W) 20:44:47 437.305
HUMSAT D 05 Feb 20:44:16 20:45:55 12° 59° (ENE) 20:47:34 437.325/437.525
HO-68 05 Feb 20:49:38 20:56:27 46° 261° (W) 21:03:22 435.675
CINEMA 3 05 Feb 20:59:44 21:04:02 35° 263° (W) 21:08:12 145.822/145.860
CUTE 1.7 + AOD 2 05 Feb 21:01:27 21:05:01 26° 266° (W) 21:08:36 437.475
AO-85 05 Feb 21:02:45 21:07:54 59° 239° (WSW) 21:12:37 145.980
DOVE 4 05 Feb 21:10:02 21:12:39 14° 272° (W) 21:15:14 437.250
COMPASS 1 05 Feb 21:10:14 21:14:03 35° 264° (W) 21:17:53 437.405
GONETS M04 05 Feb 21:12:51 21:21:41 89° 80° (E) 21:30:32
SEEDS 05 Feb 21:16:25 21:19:48 24° 266° (W) 21:23:14 437.485
PCSat 05 Feb 21:17:35 21:23:03 87° 54° (NE) 21:28:30 145.827
ZACube-1 05 Feb 21:17:41 21:21:56 79° 75° (ENE) 21:26:08 437.345
AIST 2 05 Feb 21:25:13 21:29:24 80° 308° (NW) 21:33:37 435.215
FUNcube-1 05 Feb 21:29:16 21:33:31 83° 258° (WSW) 21:37:43 145.935
STRAND 1 05 Feb 21:31:36 21:35:27 22° 300° (WNW) 21:39:18 437.568
BEESAT 3 05 Feb 21:32:26 21:34:14 13° 332° (NNW) 21:36:03 437.485
AISAT 05 Feb 21:33:57 21:35:15 11° 56° (NE) 21:36:34 437.250
PRISM 05 Feb 21:35:10 21:39:00 35° 292° (WNW) 21:42:48 437.425
ESTCUBE 1 05 Feb 21:36:23 21:38:16 13° 57° (ENE) 21:40:11 437.505/2401.250
AIST 1 05 Feb 21:37:13 21:40:12 18° 67° (ENE) 21:43:08
CUBEBUG 2 05 Feb 21:38:46 21:42:46 34° 263° (W) 21:46:41 437.445
AAUSAT CUBESAT 2 05 Feb 21:44:30 21:47:31 19° 268° (W) 21:50:34 437.432
BEESAT 2 05 Feb 21:47:57 21:49:55 13° 332° (NNW) 21:51:55 435.950
UWE-3 05 Feb 21:49:33 21:53:30 35° 263° (W) 21:57:24 435.000/436.395/437.385
Cosmos 2499 05 Feb 21:55:19 22:04:01 78° 79° (E) 22:12:03 435.465 / 435.565
TIGRISAT 05 Feb 21:57:41 21:59:02 11° 88° (E) 22:00:22 435.000
DELFI C3 05 Feb 21:59:02 22:02:53 50° 260° (W) 22:06:48 145.870
ISS 05 Feb 22:00:02 22:03:07 38° 8° (N) 22:06:12 145.825
CUBEBUG 1 05 Feb 22:05:32 22:08:25 17° 61° (ENE) 22:11:19 437.445
Oscar 11 05 Feb 22:10:23 22:13:54 24° 266° (W) 22:17:28 145.826/435.025
UKube-1 05 Feb 22:10:34 22:13:50 21° 62° (ENE) 22:17:06 .
RS-15 05 Feb 22:11:59 22:24:00 72° 241° (WSW) 22:36:12 29.354- 29.394
DX 1 05 Feb 22:13:46 22:17:24 26° 64° (ENE) 22:21:03 434.975-435.025
HUMSAT D 05 Feb 22:16:54 22:21:00 78° 258° (WSW) 22:25:06 437.325/437.525
SPROUT 05 Feb 22:30:03 22:31:24 11° 57° (ENE) 22:32:45 437.525
UNISAT 6 05 Feb 22:38:34 22:42:25 31° 96° (E) 22:46:17 437.425
VELOX 1 05 Feb 22:50:51 22:55:12 53° 71° (ENE) 22:59:34 145.980
NANOSAT C BR1 05 Feb 22:52:47 22:53:41 11° 87° (E) 22:54:34 145.865
DUCHIFAT 1 05 Feb 22:56:04 22:57:14 11° 88° (E) 22:58:25 145.980
QB50P1 05 Feb 22:57:22 22:59:13 13° 89° (E) 23:01:03 145.935-145.965
ZACube-1 05 Feb 22:57:39 22:58:47 11° 272° (W) 22:59:53 437.345
PCSat 05 Feb 23:02:34 23:05:43 16° 256° (WSW) 23:08:50 145.827
AIST 2 05 Feb 23:05:53 23:08:35 16° 328° (NNW) 23:11:18 435.215
AISAT 05 Feb 23:06:31 23:11:00 79° 73° (ENE) 23:15:30 437.250
50 SAT 05 Feb 23:06:36 23:10:17 88° 242° (WSW) 23:14:03 437.505
ESTCUBE 1 05 Feb 23:09:51 23:14:23 88° 77° (ENE) 23:18:58 437.505/2401.250
GONETS M04 05 Feb 23:11:10 23:17:20 22° 283° (WNW) 23:23:30
AIST 1 05 Feb 23:13:53 23:18:09 51° 266° (W) 23:22:21
ANTELSAT 05 Feb 23:23:26 23:27:45 89° 106° (ESE) 23:32:07 437.575/2403.000
TIGRISAT 05 Feb 23:31:59 23:36:17 79° 285° (WNW) 23:40:37 435.000
ISS 05 Feb 23:36:32 23:39:47 78° 207° (SSW) 23:43:02 145.825
CUBEBUG 1 05 Feb 23:39:53 23:44:16 62° 259° (W) 23:48:42 437.445
UKube-1 05 Feb 23:45:26 23:49:36 46° 260° (W) 23:53:49 .
POLYITAN 1 05 Feb 23:46:23 23:50:23 40° 99° (E) 23:54:20 437.675
QB50P2 05 Feb 23:47:16 23:51:18 42° 99° (E) 23:55:18 145.880/145.840
DX 1 05 Feb 23:49:23 23:53:27 37° 262° (W) 23:57:33 434.975-435.025
Cosmos 2499 05 Feb 23:49:36 23:56:10 26° 282° (WNW) 00:02:25 435.465 / 435.565
SPROUT 06 Feb 00:02:22 00:06:41 86° 76° (ENE) 00:11:01 437.525
UNISAT 6 06 Feb 00:15:24 00:19:06 29° 293° (WNW) 00:22:51 437.425
BUGSAT 1 06 Feb 00:15:25 00:19:16 40° 98° (E) 00:23:03 437.445
POPSAT HIP 1 06 Feb 00:18:09 00:22:23 86° 104° (ESE) 00:26:35 437.405
NANOSAT C BR1 06 Feb 00:25:48 00:30:00 81° 287° (WNW) 00:34:11 145.865
RS-15 06 Feb 00:26:32 00:34:15 20° 263° (W) 00:42:04 29.354- 29.394
VELOX 1 06 Feb 00:28:54 00:31:59 18° 269° (W) 00:35:07 145.980
TISAT 1 06 Feb 00:29:04 00:33:16 66° 73° (ENE) 00:37:29 437.305
DUCHIFAT 1 06 Feb 00:29:19 00:33:31 78° 285° (WNW) 00:37:41 145.980
ITUPSAT 1 06 Feb 00:30:26 00:33:31 17° 59° (ENE) 00:36:36 437.325
QB50P1 06 Feb 00:31:18 00:35:29 69° 287° (WNW) 00:39:39 145.935-145.965
BEESAT 06 Feb 00:41:21 00:44:56 22° 61° (ENE) 00:48:31 436.000
AISAT 06 Feb 00:46:13 00:48:03 12° 272° (W) 00:49:55 437.250
ESTCUBE 1 06 Feb 00:50:36 00:51:52 11° 273° (W) 00:53:08 437.505/2401.250
ANTELSAT 06 Feb 01:02:16 01:03:51 12° 302° (WNW) 01:05:27 437.575/2403.000
TIGRISAT 06 Feb 01:11:41 01:12:16 10° 303° (WNW) 01:12:51 435.000
ISS 06 Feb 01:14:00 01:15:47 14° 225° (SW) 01:17:34 145.825
POLYITAN 1 06 Feb 01:22:44 01:25:59 22° 296° (WNW) 01:29:13 437.675
QB50P2 06 Feb 01:23:41 01:26:52 21° 296° (WNW) 01:30:03 145.880/145.840
Gurwin Techsat 1B 06 Feb 01:28:14 01:29:49 11° 85° (E) 01:31:24 435.225
Oscar 19 06 Feb 01:31:23 01:35:55 30° 95° (E) 01:40:23 437.125/150
SWISSCUBE 06 Feb 01:31:41 01:36:23 63° 72° (ENE) 01:41:08 437.505
SPROUT 06 Feb 01:42:36 01:43:17 10° 273° (W) 01:43:58 437.525
BUGSAT 1 06 Feb 01:51:21 01:54:25 21° 296° (WNW) 01:57:27 437.445
POPSAT HIP 1 06 Feb 01:56:00 01:57:33 12° 302° (WNW) 01:59:05 437.405
KKS-1 06 Feb 01:57:44 02:00:44 18° 60° (ENE) 02:03:43 437.445
Cosmos 2491 06 Feb 02:01:56 02:09:44 35° 66° (ENE) 02:17:32 435.465 / 435.565
NANOSAT C BR1 06 Feb 02:04:33 02:05:02 10° 304° (WNW) 02:05:31 145.865
ITUPSAT 1 06 Feb 02:06:05 02:10:50 71° 258° (WSW) 02:15:38 437.325
TISAT 1 06 Feb 02:07:20 02:09:25 13° 271° (W) 02:11:28 437.305
DANDE 06 Feb 02:10:26 02:16:37 28° 81° (E) 02:23:21 436.750
CUSAT 1 06 Feb 02:13:25 02:20:44 45° 90° (E) 02:28:19 437.405
BEESAT 06 Feb 02:17:43 02:22:22 54° 259° (W) 02:27:04 436.000
JAS-2 06 Feb 02:23:34 02:29:30 58° 100° (E) 02:34:49 435.910
BEESAT 3 06 Feb 02:29:02 02:32:40 32° 43° (NE) 02:36:16 437.485
ITAMSAT 1 06 Feb 02:30:35 02:34:38 22° 92° (E) 02:38:40 435.822/435.867
BEESAT 2 06 Feb 02:45:10 02:48:49 32° 43° (NE) 02:52:25 435.950
MOZHAYETS 4 06 Feb 02:54:31 02:58:10 24° 64° (ENE) 03:01:51
YUBILEINY 06 Feb 02:58:56 03:05:50 27° 79° (E) 03:12:48 435.215
Gurwin Techsat 1B 06 Feb 03:05:17 03:10:39 78° 104° (ESE) 03:15:58 435.225
Oscar 19 06 Feb 03:10:33 03:15:20 40° 293° (WNW) 03:20:05 437.125/150
SWISSCUBE 06 Feb 03:11:34 03:14:38 17° 270° (W) 03:17:44 437.505
STARS 06 Feb 03:27:13 03:31:37 70° 73° (ENE) 03:36:01 437.465
AO-7 06 Feb 03:28:12 03:34:57 26° 92° (E) 03:41:38 29.400- 29.500
KKS-1 06 Feb 03:32:27 03:36:53 60° 259° (WSW) 03:41:19 437.445
PHONESAT 2.4 06 Feb 03:50:22 03:52:22 15° 161° (SSE) 03:54:23 2401.200-2431.200
DANDE 06 Feb 03:51:12 03:58:44 77° 283° (WNW) 04:07:19 436.750
CUSAT 1 06 Feb 03:55:24 04:03:01 50° 290° (WNW) 04:10:51 437.405
Cosmos 2491 06 Feb 03:58:34 04:07:08 62° 268° (W) 04:15:42 435.465 / 435.565
AIST 2 06 Feb 04:05:50 04:09:25 27° 40° (NE) 04:12:58 435.215
BEESAT 3 06 Feb 04:06:52 04:10:25 31° 242° (WSW) 04:13:55 437.485
JAS-2 06 Feb 04:09:19 04:14:07 25° 303° (WNW) 04:18:31 435.910
ITAMSAT 1 06 Feb 04:09:20 04:14:27 56° 290° (WNW) 04:19:34 435.822/435.867
BEESAT 2 06 Feb 04:23:06 04:26:43 33° 242° (WSW) 04:30:17 435.950
MOZHAYETS 4 06 Feb 04:30:48 04:35:08 42° 262° (W) 04:39:30
Gurwin Techsat 1B 06 Feb 04:46:27 04:50:00 18° 303° (WNW) 04:53:32 435.225
HORYU 2 06 Feb 04:47:32 04:51:41 38° 98° (E) 04:55:50 437.375
YUBILEINY 06 Feb 04:53:00 05:01:46 75° 281° (W) 05:10:39 435.215
CUBESAT XI-V 06 Feb 04:59:11 05:03:38 45° 70° (ENE) 05:08:09 437.345
M-CUBED/EXP-1 PRIME 06 Feb 05:00:19 05:03:36 60° 107° (ESE) 05:06:59 437.505
STARS 06 Feb 05:06:16 05:08:29 14° 271° (W) 05:10:41 437.465
AUBIESAT-1 06 Feb 05:14:03 05:17:24 74° 109° (ESE) 05:20:52 437.475
AO-7 06 Feb 05:20:12 05:28:34 78° 292° (WNW) 05:36:50 29.400- 29.500
Cosmos 2504 06 Feb 05:21:18 05:29:14 45° 86° (E) 05:37:28 435.465 / 435.565
PHONESAT 2.4 06 Feb 05:26:19 05:29:04 25° 177° (S) 05:31:49 2401.200-2431.200
STRAND 1 06 Feb 05:33:30 05:37:03 19° 58° (ENE) 05:40:36 437.568
DANDE 06 Feb 05:37:24 05:43:16 22° 306° (NW) 05:49:28 436.750
CUSAT 1 06 Feb 05:43:36 05:47:22 14° 312° (NW) 05:51:07 437.405
AIST 2 06 Feb 05:44:07 05:48:05 44° 240° (WSW) 05:52:00 435.215
Cosmos 2491 06 Feb 05:58:42 06:02:03 13° 290° (WNW) 06:05:23 435.465 / 435.565
SO-50 06 Feb 06:20:10 06:24:41 38° 118° (ESE) 06:29:16 436.795
HORYU 2 06 Feb 06:24:26 06:28:06 26° 296° (WNW) 06:31:46 437.375
M-CUBED/EXP-1 PRIME 06 Feb 06:36:51 06:37:53 11° 304° (NW) 06:38:56 437.505
CUBESAT XI-V 06 Feb 06:37:32 06:41:14 23° 268° (W) 06:44:59 437.345
PRISM 06 Feb 06:52:38 06:56:11 28° 66° (ENE) 06:59:46 437.425
YUBILEINY 06 Feb 06:54:25 07:00:20 19° 306° (NW) 07:06:19 435.215
CUTE-I 06 Feb 06:54:52 07:00:10 56° 101° (E) 07:05:27 437.470
LilacSat-2 06 Feb 06:58:37 07:02:21 56° 100° (E) 07:06:04 437.200
PHONESAT 2.4 06 Feb 07:03:25 07:05:49 19° 194° (SSW) 07:08:12 2401.200-2431.200
Cubesat XI-IV 06 Feb 07:07:11 07:12:34 71° 103° (ESE) 07:17:57 437.490
STRAND 1 06 Feb 07:10:36 07:15:42 70° 257° (WSW) 07:20:50 437.568
AO-7 06 Feb 07:14:04 07:20:07 23° 315° (NW) 07:26:09 29.400- 29.500
Cosmos 2504 06 Feb 07:14:20 07:22:33 49° 289° (WNW) 07:31:09 435.465 / 435.565
GOMX 1 06 Feb 07:23:24 07:27:27 29° 94° (E) 07:31:16 467.674
DOVE 4 06 Feb 07:26:41 07:29:25 16° 89° (E) 07:32:03 437.250
BRITE-PL 06 Feb 07:33:24 07:38:26 73° 102° (ESE) 07:43:02 437.365/2234.400
CANX-2 06 Feb 07:52:17 07:54:43 15° 89° (E) 07:57:08 2200.000
SO-50 06 Feb 08:00:34 08:05:12 40° 317° (NW) 08:09:54 436.795
HO-68 06 Feb 08:13:42 08:19:58 31° 94° (E) 08:26:12 435.675
GONETS M04 06 Feb 08:24:15 08:30:19 22° 76° (ENE) 08:36:23
PRISM 06 Feb 08:27:45 08:31:27 31° 263° (W) 08:35:12 437.425
LilacSat-2 06 Feb 08:34:16 08:36:16 14° 298° (WNW) 08:38:15 437.200
CUTE-I 06 Feb 08:35:35 08:39:53 25° 299° (WNW) 08:44:10 437.470
CUTE 1.7 + AOD 2 06 Feb 08:42:28 08:46:33 41° 98° (E) 08:50:36 437.475
Cosmos 2499 06 Feb 08:47:52 08:51:14 13° 69° (ENE) 08:54:37 435.465 / 435.565
Cubesat XI-IV 06 Feb 08:48:16 08:52:08 20° 302° (WNW) 08:55:59 437.490
COMPASS 1 06 Feb 08:49:55 08:53:36 29° 95° (E) 08:57:17 437.405
CINEMA 3 06 Feb 08:50:59 08:54:57 40° 98° (E) 08:58:53 145.822/145.860
ANTELSAT 06 Feb 08:51:03 08:53:21 14° 60° (ENE) 08:55:38 437.575/2403.000
SEEDS 06 Feb 08:56:15 09:00:20 44° 98° (E) 09:04:25 437.485
TIGRISAT 06 Feb 08:58:59 09:01:39 16° 61° (ENE) 09:04:16 435.000
GOMX 1 06 Feb 09:01:27 09:05:35 32° 294° (WNW) 09:09:27 467.674
DOVE 4 06 Feb 09:03:16 09:07:33 53° 288° (WNW) 09:11:37 437.250
ZACube-1 06 Feb 09:04:52 09:06:20 12° 88° (E) 09:07:47 437.345
BRITE-PL 06 Feb 09:13:05 09:16:15 17° 302° (WNW) 09:19:16 437.365/2234.400
O/OREOS (USA 219) 06 Feb 09:14:43 09:19:01 49° 109° (ESE) 09:23:23 437.305
Cosmos 2504 06 Feb 09:15:14 09:18:40 13° 314° (NW) 09:22:08 435.465 / 435.565
FUNcube-1 06 Feb 09:15:24 09:17:44 14° 90° (E) 09:20:03 145.935
AAUSAT CUBESAT 2 06 Feb 09:22:22 09:26:29 52° 99° (E) 09:30:35 437.432
CUBEBUG 2 06 Feb 09:26:02 09:29:53 35° 97° (E) 09:33:45 437.445
CANX-2 06 Feb 09:26:45 09:30:59 61° 287° (WNW) 09:35:12 2200.000
DELFI C3 06 Feb 09:34:49 09:37:29 17° 91° (E) 09:40:09 145.870
UWE-3 06 Feb 09:35:39 09:39:27 33° 97° (E) 09:43:17 435.000/436.395/437.385
UNISAT 6 06 Feb 09:40:24 09:44:27 40° 69° (ENE) 09:48:28 437.425
POPSAT HIP 1 06 Feb 09:40:49 09:42:28 12° 58° (ENE) 09:44:06 437.405
SO-50 06 Feb 09:44:29 09:47:03 14° 340° (NNW) 09:49:38 436.795
NANOSAT C BR1 06 Feb 09:47:36 09:49:43 14° 59° (ENE) 09:51:52 145.865
DUCHIFAT 1 06 Feb 09:50:47 09:53:00 14° 60° (ENE) 09:55:14 145.980
QB50P1 06 Feb 09:52:48 09:55:22 16° 61° (ENE) 09:57:56 145.935-145.965
Oscar 11 06 Feb 09:53:26 09:57:39 47° 99° (E) 10:01:51 145.826/435.025
HUMSAT D 06 Feb 09:58:44 10:00:49 13° 89° (E) 10:02:54 437.325/437.525
HO-68 06 Feb 10:01:01 10:08:05 60° 294° (WNW) 10:15:08 435.675
GONETS M04 06 Feb 10:17:14 10:25:55 89° 274° (W) 10:34:42
CUTE 1.7 + AOD 2 06 Feb 10:18:51 10:22:10 22° 296° (WNW) 10:25:29 437.475
ANTELSAT 06 Feb 10:25:13 10:29:34 72° 258° (WSW) 10:33:52 437.575/2403.000
COMPASS 1 06 Feb 10:25:29 10:29:10 30° 293° (WNW) 10:32:51 437.405
CINEMA 3 06 Feb 10:28:45 10:31:54 21° 296° (WNW) 10:35:00 145.822/145.860
SEEDS 06 Feb 10:32:37 10:35:48 21° 296° (WNW) 10:38:59 437.485
TIGRISAT 06 Feb 10:33:37 10:37:55 62° 259° (W) 10:42:11 435.000
Cosmos 2499 06 Feb 10:33:56 10:42:22 59° 91° (E) 10:51:03 435.465 / 435.565
RS-15 06 Feb 10:35:36 10:39:48 13° 91° (E) 10:44:04 29.354- 29.394
ZACube-1 06 Feb 10:38:58 10:43:09 74° 284° (WNW) 10:47:21 437.345
POLYITAN 1 06 Feb 10:41:53 10:45:56 46° 70° (ENE) 10:50:00 437.675
QB50P2 06 Feb 10:42:43 10:46:48 48° 71° (ENE) 10:50:54 145.880/145.840
FUNcube-1 06 Feb 10:50:15 10:54:23 59° 287° (WNW) 10:58:31 145.935
O/OREOS (USA 219) 06 Feb 10:55:07 10:58:42 23° 309° (NW) 11:02:20 437.305
AISAT 06 Feb 10:55:52 10:57:31 12° 88° (E) 10:59:09 437.250
AAUSAT CUBESAT 2 06 Feb 10:58:47 11:01:38 18° 297° (WNW) 11:04:29 437.432
JAS-2 06 Feb 10:59:14 11:00:40 11° 45° (NE) 11:02:05 435.910
ESTCUBE 1 06 Feb 11:00:36 11:03:16 15° 89° (E) 11:05:54 437.505/2401.250
CUBEBUG 2 06 Feb 11:03:03 11:06:23 24° 295° (WNW) 11:09:43 437.445
BUGSAT 1 06 Feb 11:07:51 11:11:51 43° 70° (ENE) 11:15:50 437.445
DELFI C3 06 Feb 11:08:46 11:12:40 47° 289° (WNW) 11:16:33 145.870
UWE-3 06 Feb 11:12:23 11:15:50 25° 294° (WNW) 11:19:17 435.000/436.395/437.385
POPSAT HIP 1 06 Feb 11:13:23 11:17:38 86° 251° (WSW) 11:21:54 437.405
Oscar 19 06 Feb 11:16:50 11:17:50 11° 51° (NE) 11:18:49 437.125/150
UNISAT 6 06 Feb 11:17:57 11:21:20 22° 267° (W) 11:24:42 437.425
AO-85 06 Feb 11:19:43 11:24:12 28° 113° (ESE) 11:28:50 145.980
NANOSAT C BR1 06 Feb 11:20:42 11:24:56 74° 257° (WSW) 11:29:10 145.865
DUCHIFAT 1 06 Feb 11:23:59 11:28:12 71° 257° (WSW) 11:32:26 145.980
CUBEBUG 1 06 Feb 11:26:11 11:29:24 20° 92° (E) 11:32:36 437.445
QB50P1 06 Feb 11:26:30 11:30:42 62° 258° (WSW) 11:34:56 145.935-145.965
SO-50 06 Feb 11:28:55 11:29:44 10° 5° (N) 11:30:35 436.795
UKube-1 06 Feb 11:29:52 11:33:19 23° 94° (E) 11:36:44 .
Oscar 11 06 Feb 11:30:17 11:33:29 20° 297° (WNW) 11:36:41 145.826/435.025
HUMSAT D 06 Feb 11:32:47 11:36:53 63° 287° (WNW) 11:41:00 437.325/437.525
DX 1 06 Feb 11:34:22 11:38:12 29° 96° (E) 11:41:59 434.975-435.025
AIST 1 06 Feb 11:45:48 11:50:12 79° 97° (E) 11:54:38
SPROUT 06 Feb 11:47:28 11:49:08 12° 88° (E) 11:50:46 437.525
HO-68 06 Feb 11:50:33 11:54:25 16° 315° (NW) 11:58:17 435.675
PCSat 06 Feb 12:02:20 12:07:24 42° 114° (ESE) 12:12:30 145.827
50 SAT 06 Feb 12:09:03 12:12:52 82° 106° (ESE) 12:16:39 437.505
VELOX 1 06 Feb 12:14:11 12:18:38 69° 102° (ESE) 12:23:02 145.980
GONETS M04 06 Feb 12:17:35 12:24:07 23° 302° (WNW) 12:30:43
POLYITAN 1 06 Feb 12:18:59 12:22:00 19° 268° (W) 12:25:02 437.675
QB50P2 06 Feb 12:19:57 12:22:54 18° 269° (W) 12:25:50 145.880/145.840
Cosmos 2499 06 Feb 12:27:58 12:35:56 38° 293° (WNW) 12:44:06 435.465 / 435.565
AISAT 06 Feb 12:30:08 12:34:37 79° 283° (WNW) 12:39:00 437.250
ESTCUBE 1 06 Feb 12:35:59 12:40:32 66° 287° (WNW) 12:45:02 437.505/2401.250
JAS-2 06 Feb 12:37:00 12:44:08 44° 65° (ENE) 12:50:42 435.910
RS-15 06 Feb 12:38:30 12:49:16 58° 115° (ESE) 13:00:37 29.354- 29.394
AO-7 06 Feb 12:43:02 12:47:17 15° 36° (NE) 12:51:30 29.400- 29.500
BUGSAT 1 06 Feb 12:44:20 12:47:26 20° 267° (W) 12:50:33 437.445
DANDE 06 Feb 12:47:17 12:53:42 27° 58° (ENE) 12:59:07 436.750
CUSAT 1 06 Feb 12:47:59 12:54:07 35° 64° (ENE) 12:58:59 437.405
Gurwin Techsat 1B 06 Feb 12:51:00 12:55:20 26° 62° (ENE) 12:59:42 435.225
Oscar 19 06 Feb 12:51:01 12:56:07 60° 71° (ENE) 13:01:14 437.125/150
AO-85 06 Feb 12:59:06 13:04:28 59° 312° (NW) 13:09:56 145.980
CUBEBUG 1 06 Feb 13:01:44 13:05:58 46° 290° (WNW) 13:10:07 437.445
YUBILEINY 06 Feb 13:03:56 13:09:17 17° 52° (NE) 13:14:36 435.215
UKube-1 06 Feb 13:05:29 13:09:32 40° 292° (WNW) 13:13:33 .
SO-50 06 Feb 13:08:35 13:12:12 20° 30° (NNE) 13:15:44 436.795
DX 1 06 Feb 13:10:32 13:14:23 31° 294° (WNW) 13:18:14 434.975-435.025
SPROUT 06 Feb 13:21:21 13:25:39 74° 285° (WNW) 13:29:53 437.525
AIST 1 06 Feb 13:26:30 13:28:25 13° 297° (WNW) 13:30:22
SWISSCUBE 06 Feb 13:30:33 13:32:42 13° 88° (E) 13:34:52 437.505
TISAT 1 06 Feb 13:45:35 13:49:47 78° 103° (ESE) 13:53:57 437.305
50 SAT 06 Feb 13:45:36 13:46:19 10° 301° (WNW) 13:47:01 437.505
PCSat 06 Feb 13:45:49 13:50:52 38° 314° (NW) 13:55:57 145.827
ITAMSAT 1 06 Feb 13:51:18 13:56:13 46° 68° (ENE) 14:01:12 435.822/435.867
VELOX 1 06 Feb 13:51:58 13:54:36 16° 301° (WNW) 13:57:14 145.980
ITUPSAT 1 06 Feb 14:03:55 14:07:49 24° 93° (E) 14:11:42 437.325
AISAT 06 Feb 14:09:07 14:10:20 11° 304° (NW) 14:11:31 437.250
BEESAT 06 Feb 14:14:48 14:19:02 30° 96° (E) 14:23:15 436.000
M-CUBED/EXP-1 PRIME 06 Feb 14:17:47 14:19:47 14° 58° (ENE) 14:21:43 437.505
JAS-2 06 Feb 14:21:41 14:29:05 47° 262° (W) 14:35:57 435.910
Gurwin Techsat 1B 06 Feb 14:29:51 14:35:01 51° 261° (W) 14:40:12 435.225
DANDE 06 Feb 14:29:53 14:37:40 74° 264° (W) 14:43:44 436.750
AO-7 06 Feb 14:30:11 14:38:07 49° 60° (ENE) 14:46:03 29.400- 29.500
CUSAT 1 06 Feb 14:30:24 14:36:34 41° 271° (W) 14:41:21 437.405
AUBIESAT-1 06 Feb 14:30:48 14:33:05 16° 59° (ENE) 14:35:18 437.475
Oscar 19 06 Feb 14:32:03 14:35:51 20° 269° (W) 14:39:40 437.125/150
AO-85 06 Feb 14:42:13 14:46:08 19° 334° (NNW) 14:50:00 145.980
SO-50 06 Feb 14:48:36 14:53:29 79° 51° (NE) 14:58:12 436.795
RS-15 06 Feb 14:50:52 15:01:55 56° 322° (NW) 15:13:39 29.354- 29.394
YUBILEINY 06 Feb 14:59:18 15:08:09 66° 76° (ENE) 15:16:54 435.215
SWISSCUBE 06 Feb 15:06:18 15:11:09 83° 284° (WNW) 15:15:57 437.505
Cosmos 2491 06 Feb 15:07:51 15:15:23 34° 83° (E) 15:22:55 435.465 / 435.565
Cosmos 2504 06 Feb 15:10:28 15:16:53 22° 56° (NE) 15:23:03 435.465 / 435.565
KKS-1 06 Feb 15:20:57 15:24:17 21° 93° (E) 15:27:36 437.445
TISAT 1 06 Feb 15:23:00 15:24:53 13° 301° (WNW) 15:26:46 437.305
ITAMSAT 1 06 Feb 15:31:33 15:35:54 27° 266° (W) 15:40:17 435.822/435.867
PCSat 06 Feb 15:33:30 15:35:53 13° 338° (NNW) 15:38:17 145.827
ITUPSAT 1 06 Feb 15:41:16 15:45:52 45° 292° (WNW) 15:50:27 437.325
HORYU 2 06 Feb 15:48:25 15:52:42 52° 71° (ENE) 15:57:00 437.375
M-CUBED/EXP-1 PRIME 06 Feb 15:50:30 15:54:10 52° 253° (WSW) 15:57:36 437.505
BEESAT 06 Feb 15:52:30 15:56:52 36° 294° (WNW) 16:01:13 436.000
AUBIESAT-1 06 Feb 16:03:53 16:07:27 44° 254° (WSW) 16:10:49 437.475
DANDE 06 Feb 16:15:11 16:18:55 15° 287° (WNW) 16:22:19 436.750
MOZHAYETS 4 06 Feb 16:22:26 16:26:42 35° 96° (E) 16:30:58
AO-7 06 Feb 16:23:00 16:30:57 46° 260° (W) 16:38:57 29.400- 29.500
AO-85 06 Feb 16:26:50 16:28:49 12° 358° (N) 16:30:47 145.980
SO-50 06 Feb 16:30:28 16:33:21 16° 251° (WSW) 16:36:10 436.795
CUTE-I 06 Feb 16:41:56 16:45:46 21° 58° (ENE) 16:49:36 437.470
SWISSCUBE 06 Feb 16:46:02 16:48:12 13° 305° (NW) 16:50:22 437.505
STARS 06 Feb 16:49:48 16:54:12 88° 99° (E) 16:58:34 437.465
Cubesat XI-IV 06 Feb 16:53:52 16:58:08 25° 61° (ENE) 17:02:26 437.490
KKS-1 06 Feb 16:56:51 17:01:06 45° 290° (WNW) 17:05:19 437.445
YUBILEINY 06 Feb 16:56:54 17:04:19 32° 278° (W) 17:11:43 435.215
Cosmos 2504 06 Feb 17:02:59 17:11:51 83° 80° (E) 17:20:08 435.465 / 435.565
Cosmos 2491 06 Feb 17:03:09 17:11:44 60° 285° (WNW) 17:20:23 435.465 / 435.565
RS-15 06 Feb 17:07:23 17:17:40 34° 354° (N) 17:28:22 29.354- 29.394
BRITE-PL 06 Feb 17:09:38 17:13:39 20° 60° (ENE) 17:17:38 437.365/2234.400
HORYU 2 06 Feb 17:26:32 17:29:34 18° 268° (W) 17:32:38 437.375
